DW9106 Madrid ES current weather conditions

sailwx.info

Wind from 165 at 2 knots gusting 10

Air temperature 36.7° C
Dewpoint 6.7° C

Last reported at 2015-Jun-30 13:50 UTC.
Time now 2015-Jun-30 14:26 UTC

Location: N 40°23' W 003°38'.
View on Google Maps.

See reports from other nearby stations

  
Tides and Currents Weather Stations Pressure Air Temp Water Temp Dewpoint Dewpoint Depression Visibility Wind Speed Wind Dir Waves Ship Positions
date/time (UTC)wind fromknots sea level pressurealtimeterstation pressurevisibilityair tempwater tempwave heightnotes
2015-Jun-30 13:50 165 2 gusting 10 36.7
2015-Jun-30 13:35 132 2 gusting 7 37.2
2015-Jun-30 13:20 219 3 gusting 12 36.7
2015-Jun-30 13:05 178 3 gusting 8 36.1
2015-Jun-30 12:50 219 0 gusting 9 36.1
2015-Jun-30 12:35 113 4 gusting 9 35.6
2015-Jun-30 12:20 155 2 gusting 6 36.1
2015-Jun-30 12:05 119 3 gusting 8 35.6
2015-Jun-30 11:50 126 4 gusting 9 35.6
2015-Jun-30 11:35 138 2 gusting 6 35.6
2015-Jun-30 11:20 270 0 gusting 4 34.4
2015-Jun-30 11:05 251 1 gusting 6 35.0
2015-Jun-30 10:50 087 33.9
2015-Jun-30 10:34 175 1 gusting 5 32.8
2015-Jun-30 10:19 234 2 gusting 6 33.3
2015-Jun-30 10:04 130 0 gusting 6 32.2
2015-Jun-30 09:49 113 0 gusting 6 31.1
2015-Jun-30 09:34 106 1 gusting 4 31.7
2015-Jun-30 09:19 182 31.1
2015-Jun-30 09:04 081 30.0
2015-Jun-30 08:49 080 1 gusting 4 29.4
2015-Jun-30 08:34 115 1 gusting 6 28.9
2015-Jun-30 08:19 142 0 gusting 7 28.3
2015-Jun-30 08:04 026 1 gusting 5 27.8
2015-Jun-30 07:49 103 1 gusting 5 27.2
2015-Jun-30 07:34 093 0 gusting 4 27.2
2015-Jun-30 07:19 059 0 gusting 2 26.7
2015-Jun-30 07:04 070 1 gusting 3 26.1
2015-Jun-30 06:48 067 0 gusting 4 25.6
2015-Jun-30 06:33 059 0 gusting 2 25.6
2015-Jun-30 06:18 059 0 gusting 2 25.0
2015-Jun-30 06:03 059 0 gusting 2 24.4
2015-Jun-30 05:48 059 0 gusting 2 24.4
2015-Jun-30 05:33 059 24.4
2015-Jun-30 05:18 059 23.9
2015-Jun-30 05:03 059 23.9
2015-Jun-30 04:49 059 23.9
2015-Jun-30 04:33 065 0 gusting 1 24.4
2015-Jun-30 04:18 065 24.4
2015-Jun-30 04:03 073 25.0
2015-Jun-30 03:48 107 25.0
2015-Jun-30 03:33 111 25.0
2015-Jun-30 03:18 111 25.6
2015-Jun-30 03:03 111 25.6
2015-Jun-30 02:48 111 26.1
2015-Jun-30 02:33 111 26.7
2015-Jun-30 02:18 125 0 gusting 1 27.2
2015-Jun-30 02:03 130 27.2
2015-Jun-30 01:48 126 27.8
2015-Jun-30 01:33 142 27.8
2015-Jun-30 01:17 146 28.3
2015-Jun-30 01:02 153 28.9
2015-Jun-30 00:47 145 1 gusting 5 28.9
2015-Jun-30 00:32 053 29.4
2015-Jun-30 00:17 214 30.0
2015-Jun-30 00:02 136 30.6
2015-Jun-29 23:47 144 1 gusting 6 30.6
2015-Jun-29 23:32 131 2 gusting 5 31.1
2015-Jun-29 23:17 119 1 gusting 6 31.7
2015-Jun-29 23:02 131 2 gusting 9 31.7
2015-Jun-29 22:47 133 0 gusting 6 32.2
2015-Jun-29 22:17 158 1 gusting 7 32.8
2015-Jun-29 22:02 112 1 gusting 6 32.2
2015-Jun-29 21:47 080 1 gusting 4 31.7
2015-Jun-29 21:32 277 32.2
2015-Jun-29 21:17 277 32.8
2015-Jun-29 21:02 277 33.3
2015-Jun-29 20:47 277 33.9
2015-Jun-29 20:32 277 34.4
2015-Jun-29 20:17 271 0 gusting 2 35.0
2015-Jun-29 20:02 242 0 gusting 2 35.0
2015-Jun-29 19:47 288 36.1
2015-Jun-29 19:32 288 36.7
2015-Jun-29 19:17 288 37.2
2015-Jun-29 19:02 288 37.8
2015-Jun-29 18:47 106 38.3
2015-Jun-29 18:32 255 0 gusting 3 38.3
2015-Jun-29 18:17 279 2 gusting 8 37.8
2015-Jun-29 18:02 076 38.3
2015-Jun-29 17:47 144 38.9
2015-Jun-29 17:32 150 0 gusting 5 38.9
2015-Jun-29 17:17 150 2 gusting 6 38.3
2015-Jun-29 17:02 303 0 gusting 5 38.3
2015-Jun-29 16:47 271 1 gusting 6 38.3
2015-Jun-29 16:32 236 2 gusting 6 38.9
2015-Jun-29 16:17 087 1 gusting 5 38.9
2015-Jun-29 16:02 153 0 gusting 6 38.9
2015-Jun-29 15:47 257 1 gusting 4 38.9
2015-Jun-29 15:32 136 1 gusting 6 39.4
2015-Jun-29 15:17 180 0 gusting 3 39.4
2015-Jun-29 15:02 202 2 gusting 6 38.9
2015-Jun-29 14:47 249 2 gusting 6 38.9
2015-Jun-29 14:32 117 1 gusting 6 38.9
2015-Jun-29 14:17 071 1 gusting 4 39.4
2015-Jun-29 14:01 221 3 gusting 10 38.3
2015-Jun-29 13:46 083 0 gusting 6 37.8
2015-Jun-29 13:31 109 1 gusting 6 38.3
2015-Jun-29 13:16 263 3 gusting 7 37.8
2015-Jun-29 13:01 096 0 gusting 4 37.2
2015-Jun-29 12:46 234 1 gusting 6 37.2
2015-Jun-29 12:31 217 2 gusting 5 37.2
2015-Jun-29 12:16 138 2 gusting 6 36.7
2015-Jun-29 12:01 257 2 gusting 5 36.7
2015-Jun-29 11:46 080 35.6
2015-Jun-29 11:31 126 1 gusting 3 35.6
2015-Jun-29 11:16 069 1 gusting 5 35.0
2015-Jun-29 11:01 109 0 gusting 3 34.4
2015-Jun-29 10:46 151 1 gusting 5 33.9
2015-Jun-29 10:31 331 0 gusting 4 33.3
2015-Jun-29 10:16 250 0 gusting 4 32.8
2015-Jun-29 10:01 076 3 gusting 6 32.2
2015-Jun-29 09:46 085 1 gusting 5 31.7
2015-Jun-29 09:31 100 1 gusting 4 31.7
2015-Jun-29 09:16 133 2 gusting 5 30.6
2015-Jun-29 09:00 057 0 gusting 6 30.0
2015-Jun-29 08:45 194 0 gusting 6 29.4
2015-Jun-29 08:30 084 3 gusting 6 28.9
2015-Jun-29 08:15 067 1 gusting 6 28.3
2015-Jun-29 08:00 052 2 gusting 4 27.2
2015-Jun-29 07:45 088 1 gusting 5 27.2
2015-Jun-29 07:30 049 1 gusting 5 26.7
2015-Jun-29 07:15 080 1 gusting 6 26.1
2015-Jun-29 07:00 034 2 gusting 7 25.6
2015-Jun-29 06:45 049 5 gusting 8 25.0
2015-Jun-29 06:30 049 5 gusting 8 24.4
2015-Jun-29 06:15 038 2 gusting 8 24.4
2015-Jun-29 06:00 071 3 gusting 7 24.4
2015-Jun-29 05:45 056 3 gusting 6 24.4
2015-Jun-29 05:30 067 3 gusting 6 24.4
2015-Jun-29 05:14 030 2 gusting 7 24.4
2015-Jun-29 04:59 090 2 gusting 10 24.4
2015-Jun-29 04:44 046 3 gusting 8 24.4
2015-Jun-29 04:29 055 2 gusting 7 25.0
2015-Jun-29 04:14 047 3 gusting 8 25.0
2015-Jun-29 03:59 059 3 gusting 6 25.6
2015-Jun-29 03:44 053 2 gusting 7 25.0
2015-Jun-29 03:29 046 2 gusting 6 25.6
2015-Jun-29 03:14 046 3 gusting 6 25.6
2015-Jun-29 02:59 050 0 gusting 4 26.1
2015-Jun-29 02:44 074 3 gusting 9 26.1
2015-Jun-29 02:29 053 4 gusting 8 26.7
2015-Jun-29 02:14 032 4 gusting 10 26.7
2015-Jun-29 01:59 058 4 gusting 7 27.2
2015-Jun-29 01:44 058 4 gusting 7 27.2
2015-Jun-29 01:29 046 3 gusting 9 27.2
2015-Jun-29 01:14 018 3 gusting 8 27.8
2015-Jun-29 00:59 040 3 gusting 8 28.3
2015-Jun-29 00:44 093 4 gusting 9 28.9
2015-Jun-29 00:29 044 3 gusting 9 28.9
2015-Jun-29 00:14 081 4 gusting 6 28.9
2015-Jun-28 23:59 043 4 gusting 8 29.4
2015-Jun-28 23:44 047 5 gusting 9 30.0
2015-Jun-28 23:29 057 4 gusting 9 30.0
2015-Jun-28 23:14 047 1 gusting 6 30.6
2015-Jun-28 22:59 043 29.4
2015-Jun-28 22:44 331 30.0
2015-Jun-28 22:29 331 30.6
2015-Jun-28 22:14 331 30.6
2015-Jun-28 21:59 336 31.1
2015-Jun-28 21:44 005 31.7
2015-Jun-28 21:29 301 32.2
2015-Jun-28 21:14 301 32.8
2015-Jun-28 20:59 267 1 gusting 3 33.3
2015-Jun-28 20:44 264 33.3
2015-Jun-28 20:29 239 33.9
2015-Jun-28 20:14 269 0 gusting 3 33.9
2015-Jun-28 19:59 253 34.4
2015-Jun-28 19:44 261 0 gusting 3 35.0
2015-Jun-28 19:29 236 2 gusting 5 35.6
2015-Jun-28 19:14 196 0 gusting 6 36.1
2015-Jun-28 18:59 216 0 gusting 5 36.7
2015-Jun-28 18:44 183 1 gusting 6 37.2
2015-Jun-28 18:29 262 2 gusting 6 37.2
2015-Jun-28 18:14 196 0 gusting 6 37.8
2015-Jun-28 17:58 257 0 gusting 5 37.8
2015-Jun-28 17:43 241 3 gusting 10 37.8
2015-Jun-28 17:28 160 4 gusting 10 37.8
2015-Jun-28 17:13 237 2 gusting 9 38.3
2015-Jun-28 16:58 206 0 gusting 4 38.3
2015-Jun-28 16:43 199 3 gusting 11 38.3
2015-Jun-28 16:28 294 1 gusting 4 38.3
2015-Jun-28 16:13 134 2 gusting 8 38.3
2015-Jun-28 15:58 155 2 gusting 10 38.9
2015-Jun-28 15:43 184 0 gusting 4 38.9
2015-Jun-28 15:28 293 1 gusting 6 38.9
2015-Jun-28 15:13 248 0 gusting 7 38.3
2015-Jun-28 14:58 254 3 gusting 11 38.9
2015-Jun-28 14:43 046 38.3
2015-Jun-28 14:28 171 0 gusting 5 37.8
2015-Jun-28 14:13 243 2 gusting 8 37.8